Flag for Poland Past Weather in Jastrzębie Zdrój, Poland — Yesterday and Last 2 Weeks

Now
59 °F

Partly sunny.


Feels Like: 58 °F
Forecast: 52 / 71 °F
Wind: 6 mph from Southwest

Location: Ostrava / Mosnov

Current Time: May 24, 2016 at 8:19:51 AM

Latest Report: May 24, 2016 at 7:00 AM


Visibility: 11 mi

Pressure: 29.70 "Hg

Humidity: 81%

Dew Point: 53 °F

Location of Jastrzębie ZdrójLocation

Past Weather in Jastrzębie Zdrój — Graph

°F

Jastrzębie Zdrój Temperature Yesterday

Maximum temperature yesterday: 82 °F (at 3:00 PM)
Minimum temperature yesterday: 49 °F (at 4:00 AM)
Average temperature yesterday: 68 °F

High & Low Weather Summary for the Past Weeks

 TemperatureHumidityPressure
High82 °F (May 23, 3:00 PM)97% (May 11, 6:00 AM)30.15 "Hg (May 11, 6:00 AM)
Low38 °F (May 16, 3:00 AM)27% (May 23, 1:00 PM)29.35 "Hg (May 13, 7:00 AM)
Average57 °F65%29.88 "Hg
* Reported May 9 7:00 AM — May 24 7:00 AM, Jastrzębie Zdrój, Weather by CustomWeather, © 2016

Note: Actual official high and low records may vary slightly from our data, if they occured in-between our weather recording intervals... More about our weather records

Advertising

Jastrzębie Zdrój Weather History for the Previous 24 Hours

Scroll right to see more
 ConditionsComfort  
Time TempWeatherWind HumidityBarometerVisibility
7:00 AM
Tue, May 24
59 °FPartly sunny.6 mph81%29.70 "Hg11 mi
6:00 AM56 °FOvercast.5 mph88%29.71 "Hg9 mi
5:00 AM56 °FPartly sunny.5 mph88%29.71 "Hg9 mi
4:00 AM58 °FPassing clouds.6 mph84%29.71 "Hg9 mi
3:00 AM58 °FPassing clouds.3 mph84%29.72 "Hg16 mi
2:00 AM60 °FPassing clouds.No wind80%29.72 "Hg16 mi
11:00 PM
Mon, May 23
66 °FPassing clouds.N/A57%29.74 "Hg19 mi
10:00 PM67 °FPassing clouds.1 mph55%29.73 "Hg19 mi
9:00 PM70 °FPassing clouds.N/A44%29.73 "Hg19 mi
8:00 PM73 °FPartly sunny.5 mph40%29.71 "Hg22 mi
7:00 PM76 °FScattered clouds.3 mph33%29.71 "Hg25 mi
6:00 PM81 °FScattered clouds.3 mph30%29.70 "Hg25 mi
5:00 PM81 °FScattered clouds.3 mph28%29.71 "Hg25 mi
4:00 PM82 °FScattered clouds.6 mph31%29.72 "Hg25 mi
3:00 PM82 °FPassing clouds.3 mph30%29.74 "Hg25 mi
2:00 PM81 °FPassing clouds.7 mph29%29.75 "Hg25 mi
1:00 PM80 °FPassing clouds.6 mph27%29.77 "Hg22 mi
12:00 PM78 °FPassing clouds.6 mph32%29.79 "Hg22 mi
11:00 AM78 °FPassing clouds.3 mph35%29.80 "Hg22 mi
10:00 AM73 °FPassing clouds.N/A46%29.82 "Hg19 mi
9:00 AM68 °FSunny.N/A57%29.84 "Hg19 mi
8:00 AM62 °FSunny.2 mph65%29.85 "Hg12 mi
Weather by CustomWeather, © 2016

See weather overviewHow to use our weather pages